sat.trackr.live / text

‹ back to catalog

STARLINK-33694

NORAD 63407 · 2025-065J

PAYLOAD ACTIVE UNKNOWN

§ Identity

Operator
Country
US
Launch date
2025-03-31
Launch site
AFETR
Launch vehicle
Mass (kg)
RCS (m²)

Purposes: comms

External: N2YO · Heavens-Above · Gunter

§ Orbital elements

Epoch: 2026-09-20T05:21:45.668736Z

Period
94.27 min
Inclination
42.9984°
Eccentricity
0.0001591
Mean motion
15.27590372 rev/d
Perigee alt
481.9 km
Apogee alt
484.1 km
Semi-major
6,861.2 km
B*
3.3939e-4
RAAN
88.2515°
Arg perigee
269.9314°
Mean anomaly
90.1355°
Rev number
8,259

§ Raw data

STARLINK-336941 63407U 25065J   26263.22344524  .00009092  00000+0  33939-3 0  99922 63407  42.9984  88.2515 0001591 269.9314  90.1355 15.27590372 82595

JSON: /api/v1/satellites/63407 · /tle

For live sub-satellite position, see the globe view (requires WebGL).

§ Visibility from observer

Set your observer location to see the next 7 days of passes ≥ 10°. The values pass through the URL so the page stays shareable.

No JS? Fill the form by hand. The geolocation button needs JavaScript.